TimeCDT,TemperatureF,Dew PointF,Humidity,Sea Level PressureIn,VisibilityMPH,Wind Direction,Wind SpeedMPH,Gust SpeedMPH,PrecipitationIn,Events,Conditions,WindDirDegrees,DateUTC
12:14 AM,77.0,73.4,89,29.80,10.0,SSE,8.1,-,N/A,,Clear,150,2013-08-21 05:14:00
12:34 AM,77.0,73.4,89,29.79,10.0,SSE,10.4,-,N/A,,Clear,150,2013-08-21 05:34:00
12:54 AM,77.0,73.4,89,29.79,10.0,SSE,9.2,-,N/A,,Clear,150,2013-08-21 05:54:00
1:15 AM,77.0,73.4,89,29.80,10.0,South,6.9,-,N/A,,Clear,170,2013-08-21 06:15:00
1:34 AM,75.2,73.4,94,29.81,10.0,SSE,3.5,-,N/A,,Clear,160,2013-08-21 06:34:00
1:54 AM,75.2,73.4,94,29.82,10.0,Calm,Calm,-,N/A,,Clear,0,2013-08-21 06:54:00
2:14 AM,73.4,71.6,94,29.81,7.0,ESE,3.5,-,N/A,,Clear,110,2013-08-21 07:14:00
2:35 AM,73.4,71.6,94,29.80,5.0,ESE,4.6,-,N/A,,Clear,110,2013-08-21 07:35:00
2:54 AM,73.4,71.6,94,29.80,5.0,SE,4.6,-,N/A,,Clear,140,2013-08-21 07:54:00
3:14 AM,73.4,71.6,94,29.81,5.0,Calm,Calm,-,N/A,,Clear,0,2013-08-21 08:14:00
3:34 AM,73.4,71.6,94,29.82,5.0,Calm,Calm,-,N/A,,Clear,0,2013-08-21 08:34:00
3:54 AM,73.4,71.6,94,29.81,3.0,Calm,Calm,-,N/A,,Clear,0,2013-08-21 08:54:00
4:14 AM,71.6,71.6,100,29.82,4.0,Calm,Calm,-,N/A,,Clear,0,2013-08-21 09:14:00
4:34 AM,71.6,71.6,100,29.82,3.0,Calm,Calm,-,N/A,,Clear,0,2013-08-21 09:34:00
4:54 AM,71.6,71.6,100,29.83,3.0,Calm,Calm,-,N/A,,Clear,0,2013-08-21 09:54:00
5:14 AM,71.6,71.6,100,29.83,3.0,Calm,Calm,-,N/A,,Scattered Clouds,0,2013-08-21 10:14:00
5:35 AM,71.6,71.6,100,29.83,4.0,Calm,Calm,-,N/A,,Clear,0,2013-08-21 10:35:00
5:55 AM,71.6,71.6,100,29.83,3.0,Calm,Calm,-,N/A,,Clear,0,2013-08-21 10:55:00
6:14 AM,73.4,73.4,100,29.84,7.0,NNW,6.9,16.1,N/A,,Clear,330,2013-08-21 11:14:00
6:35 AM,73.4,71.6,94,29.85,10.0,NNW,9.2,-,N/A,,Clear,330,2013-08-21 11:35:00
6:54 AM,71.6,68.0,88,29.86,10.0,NNW,9.2,-,N/A,,Clear,330,2013-08-21 11:54:00
7:15 AM,69.8,66.2,88,29.88,10.0,NW,9.2,-,N/A,,Clear,320,2013-08-21 12:15:00
7:34 AM,68.0,64.4,88,29.88,10.0,NNW,8.1,-,N/A,,Clear,330,2013-08-21 12:34:00
7:55 AM,68.0,62.6,83,29.90,10.0,NNW,9.2,-,N/A,,Clear,330,2013-08-21 12:55:00
8:14 AM,68.0,62.6,83,29.91,10.0,NW,5.8,-,N/A,,Clear,310,2013-08-21 13:14:00
8:34 AM,69.8,62.6,78,29.92,10.0,NW,9.2,-,N/A,,Clear,320,2013-08-21 13:34:00
8:54 AM,69.8,64.4,83,29.93,10.0,NNW,5.8,-,N/A,,Clear,330,2013-08-21 13:54:00
9:14 AM,71.6,64.4,78,29.93,10.0,NNW,10.4,-,N/A,,Clear,330,2013-08-21 14:14:00
9:34 AM,73.4,64.4,73,29.93,10.0,NNW,9.2,-,N/A,,Clear,330,2013-08-21 14:34:00
9:55 AM,73.4,64.4,73,29.95,10.0,North,5.8,-,N/A,,Clear,360,2013-08-21 14:55:00
10:14 AM,75.2,64.4,69,29.95,10.0,NNW,3.5,-,N/A,,Clear,340,2013-08-21 15:14:00
10:34 AM,77.0,66.2,69,29.94,10.0,Calm,Calm,-,N/A,,Clear,0,2013-08-21 15:34:00
10:54 AM,78.8,66.2,65,29.95,10.0,NNW,6.9,-,N/A,,Clear,340,2013-08-21 15:54:00
11:14 AM,80.6,66.2,61,29.96,10.0,NNW,8.1,-,N/A,,Clear,340,2013-08-21 16:14:00
11:34 AM,80.6,66.2,61,29.96,10.0,North,8.1,-,N/A,,Clear,350,2013-08-21 16:34:00
11:55 AM,82.4,66.2,58,29.97,10.0,NNW,8.1,-,N/A,,Clear,340,2013-08-21 16:55:00
12:14 PM,82.4,68.0,62,29.97,10.0,NNW,6.9,-,N/A,,Clear,340,2013-08-21 17:14:00
12:35 PM,84.2,68.0,58,29.97,10.0,North,9.2,-,N/A,,Clear,350,2013-08-21 17:35:00
12:54 PM,84.2,68.0,58,29.98,10.0,North,6.9,-,N/A,,Clear,350,2013-08-21 17:54:00
1:14 PM,86.0,66.2,51,29.98,10.0,NNW,8.1,-,N/A,,Clear,330,2013-08-21 18:14:00
1:35 PM,86.0,66.2,51,29.98,10.0,North,8.1,-,N/A,,Clear,350,2013-08-21 18:35:00
1:54 PM,87.8,66.2,49,29.99,10.0,NNW,8.1,-,N/A,,Clear,340,2013-08-21 18:54:00
2:14 PM,87.8,64.4,46,29.99,10.0,North,8.1,16.1,N/A,,Clear,350,2013-08-21 19:14:00
2:34 PM,87.8,66.2,49,29.99,10.0,NNW,10.4,-,N/A,,Clear,340,2013-08-21 19:34:00
2:54 PM,87.8,66.2,49,29.99,10.0,North,9.2,-,N/A,,Clear,360,2013-08-21 19:54:00
3:14 PM,87.8,64.4,46,29.99,10.0,North,9.2,-,N/A,,Clear,10,2013-08-21 20:14:00
3:35 PM,87.8,66.2,49,29.99,10.0,NNW,9.2,-,N/A,,Clear,330,2013-08-21 20:35:00
3:54 PM,87.8,66.2,49,29.99,10.0,NNW,8.1,-,N/A,,Clear,340,2013-08-21 20:54:00
4:14 PM,87.8,66.2,49,29.99,10.0,North,5.8,-,N/A,,Clear,10,2013-08-21 21:14:00
4:34 PM,87.8,64.4,46,29.99,10.0,North,8.1,-,N/A,,Clear,350,2013-08-21 21:34:00
4:54 PM,87.8,64.4,46,29.99,10.0,North,6.9,-,N/A,,Clear,360,2013-08-21 21:54:00
5:14 PM,87.8,64.4,46,30.00,10.0,NNW,6.9,-,N/A,,Clear,340,2013-08-21 22:14:00
5:35 PM,87.8,64.4,46,30.00,10.0,NNW,8.1,-,N/A,,Clear,340,2013-08-21 22:35:00
5:54 PM,84.2,62.6,48,30.00,10.0,North,8.1,-,N/A,,Clear,350,2013-08-21 22:54:00
6:14 PM,84.2,62.6,48,30.00,10.0,North,9.2,-,N/A,,Clear,350,2013-08-21 23:14:00
6:34 PM,84.2,64.4,51,30.00,10.0,North,8.1,-,N/A,,Clear,350,2013-08-21 23:34:00
6:54 PM,82.4,62.6,51,30.00,10.0,North,8.1,-,N/A,,Clear,350,2013-08-21 23:54:00
7:14 PM,82.4,62.6,51,30.01,10.0,North,8.1,-,N/A,,Clear,350,2013-08-22 00:14:00
7:35 PM,80.6,62.6,54,30.02,10.0,North,5.8,-,N/A,,Clear,360,2013-08-22 00:35:00
7:54 PM,78.8,60.8,54,30.02,10.0,North,5.8,-,N/A,,Clear,360,2013-08-22 00:54:00
8:14 PM,77.0,60.8,57,30.03,10.0,North,4.6,-,N/A,,Clear,360,2013-08-22 01:14:00
8:35 PM,75.2,60.8,61,30.03,10.0,North,4.6,-,N/A,,Clear,360,2013-08-22 01:35:00
8:54 PM,75.2,60.8,61,30.04,10.0,North,5.8,-,N/A,,Clear,360,2013-08-22 01:54:00
9:14 PM,73.4,60.8,65,30.04,10.0,North,6.9,-,N/A,,Clear,360,2013-08-22 02:14:00
9:34 PM,73.4,59.0,61,30.05,10.0,North,4.6,-,N/A,,Clear,360,2013-08-22 02:34:00
9:55 PM,71.6,59.0,64,30.05,10.0,North,4.6,-,N/A,,Clear,360,2013-08-22 02:55:00
10:15 PM,71.6,59.0,64,30.05,10.0,North,5.8,-,N/A,,Clear,360,2013-08-22 03:15:00
10:34 PM,71.6,57.2,60,30.06,10.0,North,6.9,-,N/A,,Clear,360,2013-08-22 03:34:00
10:54 PM,71.6,57.2,60,30.06,10.0,North,6.9,-,N/A,,Clear,360,2013-08-22 03:54:00
11:14 PM,69.8,57.2,64,30.06,10.0,North,3.5,-,N/A,,Clear,360,2013-08-22 04:14:00
11:34 PM,68.0,59.0,73,30.06,10.0,North,5.8,-,N/A,,Clear,10,2013-08-22 04:34:00
11:54 PM,68.0,57.2,68,30.08,10.0,Calm,Calm,-,N/A,,Clear,0,2013-08-22 04:54:00